CZ-6A DEB, 61487

Orbit data source: Space-Track

CZ-6A DEB, 61487 is space debris in LEO originally from a launch on Tue, 06 Aug 2024 UTC launched from the Taiyaun Space Center, China (TSC). Debris objects in space refer to the collection of defunct objects orbiting the Earth. Examples of debris include non-operational satellites, rocket bodies, and fragments generated from explosions, collisions, or faulty payload assembly.

Loading next visibility...
Identifier
61487, 2024-140AAV
Orbit
LEO
Country
Flag of CNCN / PRC
Related business
Manufacturer
SAST
Mission
Spacecraft
Bus & Motor
Unknown
Mass
Unknown
Launch date (UTC)
2024-08-06 (2 years ago)
Launch vehicle
Unknown
Launch site
Taiyaun Space Center, China (TSC)
Object type
Payload
Rocket body
Debris
Shape & HBR
Unknown shape, 0.1 m
Radar Cross Section
Small (<0.1 m²)

Expand to show TLE details & history
Last TLE update: 15 hours ago

TLE from 15 hours ago
0 CZ-6A DEB
1 61487U 24140AAV 26171.23718332  .00002092  00000-0  83995-3 0  9993
2 61487  89.0088 274.4027 0037633 180.8578 179.2558 14.27497740 92313
Epoch: 2026-06-20T05:41Z
TLE epoch observation values (Epoch: 2026-06-20T05:41:32.638Z)
Latitude
-0.00008°
Longitude
-79.43798°
Altitude
830.188 km
Speed
7.424 km/s
True Right ascension
18h 17m 36s
True Declination
0° 00' 00"
Sunlit
Object was in full shadow at epoch
Visualization orbit readout
Latitude
Unknown
Longitude
Unknown
Altitude
Unknown
Speed
Unknown
Apparent Right ascension
Unknown
Apparent Declination
Unknown
Sunlit
N/A
Visualization observer readout
Local Sidereal Time
07:20:32
Azimuth
Unknown
Elevation
Unknown
Doppler factor
Unknown
Orbital elements
Apogee altitude
824.05 km
Perigee altitude
770.045 km
Semi-major axis
7,175.184 km
Eccentricity
0.00376
Inclination
89.0088°
RAAN
274.4027°
Arg. of periapsis
180.8578°
True anomaly
179.26137°
Mean anomaly
179.2558°
Eccentric anomaly
179.25859°
Mean motion
3.57103 °/min
Orbital period
100.81 mins
BSTAR
0.00083995
Loading maneuver chart data...
Computing Atmospheric mass density...
Loading historical data...
Loading historical data...
Loading historical data...
Loading historical data...
Loading historical data...
Loading historical data...
Loading historical data...

Documentation

Showing up to 5 results
|